DELTA 1 DEB, 29186

Orbit data source: Space-Track

DELTA 1 DEB, 29186 is space debris in LEO originally from a launch on Thu, 11 Jan 1968 UTC launched from the Air Force Western Test Range (AFWTR). Debris objects in space refer to the collection of defunct objects orbiting the Earth. Examples of debris include non-operational satellites, rocket bodies, and fragments generated from explosions, collisions, or faulty payload assembly.

Loading next visibility...
DELTA 1 DEB details
Identifier
29186, 1968-002K
Orbit
LEO
Last TLE update2 days ago
Origin
Flag of USGSFC (US)
ManufacturerUnknown
MissionSpacecraft
Bus & MotorUnknown
MassUnknown
Launch date (UTC)
1968-01-11 (57 years ago)
Launch vehicleUnknown
Launch site
Air Force Western Test Range (AFWTR)
Object type
Payload
Rocket body
Debris
Shape & HBRUnknown
Radar Cross SectionSmall (<0.1 m²)

Expand to show TLE details & history

TLE from 2 days ago
0 DELTA 1 DEB
1 29186U 68002K   24354.09346703  .00000208  00000-0  84813-3 0  9999
2 29186 105.7968 294.1125 0310227 338.2320  32.9240 12.92763858948040
Epoch: 2024-12-19T02:14Z
Definitive object data (Epoch: 2024-12-19T02:14:35.551Z)
Latitude12.61633°
Longitude168.67427°
Altitude1,094.818 km
Speed7.399 km/s
True Right ascension19h 22m 00s
True Declination12° 32' 48"
Sunlit
Object was in daylight at TLE epoch
Visualization TLE readout
Latitude-30.2575°
Longitude-174.86025°
Altitude1,064.588 km
Speed7.431 km/s
Apparent Right ascension21h 23m 39s
Apparent Declination-35° 37' 10"
Sunlit
Object is in daylight
Visualization observer readout
Local Sidereal Time10:37:29
Azimuth79.417° E
Elevation-74.821°
Doppler factor1
Orbital elements
Apogee altitude1,526.178 km
Perigee altitude1,050.508 km
Semi-major axis7,666.48 km
Eccentricity0.0310227
Inclination105.7968°
RAAN294.1125°
Arg. of periapsis338.232°
True anomaly34.92071°
Mean anomaly32.924°
Eccentric anomaly33.91578°
Mean motion3.23332 °/min
BSTAR0.00084813
Orbital period111.34 mins
Loading maneuver chart data...
Loading historical data...
Loading historical data...
Loading historical data...
Loading historical data...
Loading historical data...
Loading historical data...
Loading historical data...

DELTA 1 DEB Visibility forecast

Observer location: undefined°, undefined

Span
Click to sort rows by Start time (UTC) header in descending order
Start Az.
Max El. time (UTC)
Max El. Az.
Max El.
End time (UTC)
End Az.
6 mins2024-12-21 12:18:50.213Z343.935° N2024-12-21 12:21:50.213Z322.17° NNW12.782°2024-12-21 12:24:50.213Z300.738° NW
5 mins2024-12-21 17:34:50.213Z54.981° ENE2024-12-21 17:36:50.213Z37.453° NE13.336°2024-12-21 17:39:50.213Z13.315° NNE
12 mins2024-12-21 19:18:50.213Z133.678° SE2024-12-21 19:23:50.213Z62.021° ENE40.535°2024-12-21 19:30:50.213Z344.808° N
10 mins2024-12-21 21:08:50.213Z211.907° SW2024-12-21 21:12:50.213Z254.601° W23.707°2024-12-21 21:18:50.213Z312.996° NW
15 mins2024-12-22 08:47:50.213Z37.452° NE2024-12-22 08:54:50.213Z108.638° ESE36.826°2024-12-22 09:02:50.213Z178.716° S
14 mins2024-12-22 10:36:50.213Z7.142° NNE2024-12-22 10:42:50.213Z311.583° NW35.128°2024-12-22 10:50:50.213Z236.64° WSW
|